Location: Gugi
(45.4667°N, 11.1000°E)
Time: 21:26:48
(UTC+00:00)

Cosmos 2263 Rocket - Visible Passes

Search period start: 21 February 2020 00:00
Search period end: 02 March 2020 00:00
Orbit: 823 x 849 km, 71.0° (Epoch: 21 February)

Date Brightness Start Highest point End Pass type
(mag) Time Alt. Az. Time Alt. Az. Time Alt. Az.
24 Feb 4.6 19:48:20 10° NNE 19:48:31 10° NNE 19:48:31 10° NNE visible
24 Feb 5.1 21:30:11 10° NNW 21:30:13 10° NNW 21:30:13 10° NNW visible
25 Feb 4.5 19:31:53 10° NNE 19:32:15 10° NNE 19:32:15 10° NNE visible
25 Feb 4.9 21:13:27 10° NNW 21:13:56 12° NNW 21:13:56 12° NNW visible
26 Feb 4.5 19:15:34 10° NNE 19:15:59 10° NNE 19:15:59 10° NNE visible
26 Feb 4.7 20:56:43 10° NNW 20:57:41 15° NNW 20:57:41 15° NNW visible
27 Feb 4.4 20:39:58 10° NNW 20:41:27 18° N 20:41:27 18° N visible
28 Feb 4.2 20:23:15 10° NNW 20:25:14 20° N 20:25:14 20° N visible
29 Feb 3.9 20:06:31 10° NNW 20:09:03 23° N 20:09:03 23° N visible
29 Feb 5.1 21:50:26 10° NW 21:50:44 11° NW 21:50:44 11° NW visible
01 Mar 3.7 19:49:48 10° N 19:52:53 26° NNE 19:52:53 26° NNE visible
01 Mar 4.8 21:33:37 10° NW 21:34:35 15° NW 21:34:35 15° NW visible
